Terminal Aerodrome Forecast
Issued by NWS Upton, NY

Current Version | Previous Version | Text Only | Print | Product List | Glossary On
Versions: 1 2 3 4 5 6 7 8 9 10 11 12 13 14 15 16 17 18 19 20 21 22 23 24 25 26 27 28 29 30 31
000
FTUS41 KOKX 220700 AAC
TAFJFK
TAF AMD
KJFK 220755Z 2208/2312 05014KT 6SM -TSRA SCT015 BKN035CB
      TEMPO 2208/2210 2SM TSRA BKN015CB
     FM221100 03013KT 6SM -RA BR BKN012
     FM221400 02018G25KT 6SM BR VCSH BKN020
     FM230000 36020G29KT 4SM -RA BR BKN012
     FM230600 35015G23KT 6SM BR VCSH BKN010=

USA.gov is the U.S. government's official web portal to all federal, state and local government web resources and services.